Theta_e
311 311 312 310 307 307 307 309 307 303 305 310 311 313 315 316 315 315 315 312 316 318 319 319 318 317 315 311 309 309 306 303 301 300 300 301 301 302
312 310 309 308 306 306 305 306 305 305 302 307 310 311 310 310 312 312 312 308 312 316 316 315 315 314 312 310 308 306 304 301 300 300 300 300 300 300
311 311 311 311 307 305 304 303 303 303 304 305 306 306 305 307 307 309 309 307 308 311 314 314 312 313 311 309 307 304 302 301 300 299 299 299 299 299
312 311 309 308 308 307 305 304 303 304 305 303 303 302 302 302 304 304 304 303 304 304 310 311 312 311 309 307 306 303 301 299 299 298 298 297 298 298
311 309 309 307 305 306 306 305 304 303 303 303 303 301 301 299 298 298 299 302 301 301 306 309 311 310 308 306 304 302 300 298 298 297 296 295 296 297
311 308 308 306 306 304 303 304 304 304 302 302 300 299 299 297 298 297 296 298 299 299 301 307 308 307 306 305 303 301 299 298 298 297 296 295 294 295
308 308 307 305 303 305 304 304 303 303 301 300 299 298 297 295 296 297 298 297 296 297 299 303 304 304 304 304 301 300 299 299 298 297 296 295 294 294
305 306 306 302 303 304 304 303 304 302 301 301 300 299 299 298 297 298 296 293 294 296 297 298 301 299 298 298 301 300 301 299 298 297 296 294 293 293
306 305 305 305 303 305 304 304 303 303 304 303 302 300 301 299 298 296 295 295 295 292 294 292 293 294 294 295 299 298 297 297 297 296 294 293 292 292
306 305 305 303 303 303 303 302 303 303 304 303 305 305 304 303 301 300 298 293 290 291 292 289 289 290 290 291 296 297 296 295 295 294 293 292 291 290
304 304 305 303 302 303 302 301 300 302 302 302 301 301 301 301 300 296 291 290 288 287 289 289 285 285 285 285 286 290 292 293 293 292 291 289 289 289
301 301 301 303 302 302 302 301 299 300 300 299 300 300 301 300 299 298 293 291 287 285 287 287 283 284 283 282 283 285 287 291 291 290 288 287 287 286
297 297 299 302 302 302 302 300 299 298 299 297 294 293 293 294 292 292 292 292 287 287 287 286 284 283 283 280 282 283 284 284 285 285 284 284 284 285
295 296 297 299 299 300 300 300 299 297 293 291 289 288 288 287 286 286 286 286 287 288 289 286 284 284 284 281 280 281 281 282 282 282 282 282 283 284
295 296 297 298 298 298 298 298 294 291 289 287 286 285 285 285 284 283 283 283 283 283 284 284 285 283 284 283 281 280 280 280 281 280 280 280 280 281
294 295 296 296 296 295 293 291 290 289 288 286 285 284 283 284 283 284 283 283 281 279 281 282 283 282 280 280 280 279 279 279 279 280 279 280 280 281
293 293 291 290 289 288 287 287 288 288 287 285 283 282 283 283 283 283 283 281 280 278 278 280 280 280 280 280 279 279 278 278 278 279 278 278 280 281
291 289 288 288 287 286 286 286 286 287 286 285 284 283 283 283 281 281 281 281 279 278 278 278 278 278 277 277 279 276 276 277 278 278 278 277 279 282
288 286 286 286 286 286 285 285 285 285 285 285 284 284 283 282 282 280 280 279 278 278 278 277 276 276 275 276 276 279 277 276 277 277 278 278 277 279
285 285 285 286 286 285 285 285 284 284 284 284 284 284 284 283 281 280 279 278 278 276 275 275 275 274 276 277 275 276 278 277 277 277 277 278 278 281
284 285 286 285 285 285 285 285 285 284 284 284 283 283 283 283 282 281 280 279 278 276 275 275 276 275 273 273 274 275 277 278 279 276 276 275 275 276
283 283 284 285 285 285 285 285 285 285 284 283 283 283 282 282 281 280 280 279 277 277 277 274 273 273 274 274 272 272 274 276 276 278 280 279 276 275
281 282 282 284 285 285 285 285 284 284 284 283 283 282 281 280 280 280 280 279 277 274 273 272 272 273 272 273 272 271 270 271 274 274 276 279 281 282
Wind_Speed
11 11 10 8 7 6 5 5 5 5 5 4 6 8 9 9 10 10 10 12 16 15 13 10 6 14 14 13 11 12 10 8 6 6 6 7 7 8
9 11 10 6 8 6 5 5 4 6 7 5 5 4 5 7 7 9 10 10 15 17 14 10 6 14 16 16 15 13 11 9 7 7 7 7 8 8
10 12 15 12 9 8 7 5 5 4 8 5 3 2 4 7 7 8 7 7 6 12 11 10 10 15 18 17 15 13 11 10 8 8 8 8 9 9
14 14 14 8 12 11 9 10 8 9 7 11 5 5 6 4 4 7 6 5 6 7 11 11 13 16 17 16 15 13 11 9 8 8 8 9 9 10
13 13 13 11 11 9 10 9 9 6 8 6 6 2 3 2 2 2 4 6 5 7 10 11 15 16 16 14 15 12 11 9 9 10 9 9 9 10
10 11 10 11 12 10 9 10 9 8 8 7 5 4 3 2 3 3 4 4 6 5 6 7 12 16 17 17 15 12 11 11 12 11 10 10 9 10
9 10 10 12 14 11 8 9 9 8 7 7 6 4 4 4 5 4 6 3 4 4 4 6 6 7 8 13 8 12 13 13 13 13 12 11 9 9
9 10 10 13 13 15 15 14 13 11 10 7 6 8 11 7 5 5 4 4 4 7 7 5 4 6 5 4 12 12 14 15 14 13 12 10 8 9
9 9 8 7 10 9 13 13 13 14 8 10 9 11 7 9 7 6 6 5 4 3 5 5 4 6 4 5 13 12 11 12 12 11 10 9 8 9
8 9 9 9 9 9 7 9 9 9 12 8 10 8 9 6 10 7 8 5 3 2 2 3 3 4 2 2 10 11 11 11 12 11 9 7 7 9
6 6 7 7 9 11 7 6 6 8 7 11 7 7 9 10 9 7 4 4 3 3 4 3 2 2 1 1 2 1 7 12 10 9 8 6 7 9
4 4 8 6 12 14 9 8 8 7 6 4 3 4 7 9 16 8 7 5 3 2 4 5 3 3 2 1 1 1 4 11 9 7 6 5 6 5
3 2 2 6 7 9 8 4 5 5 6 5 3 3 3 3 4 3 3 3 4 2 5 4 3 3 2 3 2 4 3 3 3 3 4 4 7 8
3 2 2 4 6 7 6 7 8 5 3 3 3 3 3 3 3 4 5 5 4 3 10 4 4 3 4 3 4 4 3 3 2 3 2 3 8 12
2 5 5 4 5 5 6 10 8 3 4 3 3 2 2 4 6 5 7 9 9 7 5 2 4 4 3 3 4 3 4 3 2 2 2 3 5 5
4 4 5 6 5 6 7 5 3 3 3 3 3 4 4 4 4 3 3 4 4 3 7 4 4 4 3 2 2 3 3 2 2 2 3 5 5 5
2 2 1 2 3 2 3 3 3 3 3 3 4 4 4 4 3 3 3 2 2 4 4 3 6 6 4 4 2 2 2 1 1 2 3 5 5 5
2 2 2 2 2 2 2 2 1 3 3 4 4 4 4 4 4 2 2 2 3 4 4 3 3 2 1 2 1 3 2 2 2 2 3 3 5 3
3 2 2 1 1 2 2 2 2 2 2 3 4 5 5 4 7 4 3 2 3 4 4 3 2 1 2 3 1 3 3 3 2 3 2 2 4 10
3 2 2 2 2 1 2 2 2 2 1 2 3 4 5 5 5 5 5 4 5 4 4 2 2 2 2 2 3 2 3 3 3 1 2 3 7 20
5 5 4 2 2 2 2 3 3 4 4 4 4 4 5 6 6 6 6 10 9 5 7 6 4 6 4 3 1 2 2 6 4 3 1 3 4 4
6 6 6 5 4 2 3 3 3 3 4 4 4 5 5 6 6 7 7 8 7 7 4 5 4 4 2 2 2 1 3 3 5 11 14 13 3 4
6 6 6 5 4 3 2 1 2 2 4 4 4 5 5 6 6 6 7 7 8 6 6 6 4 2 2 2 2 0 1 3 3 4 3 7 11 17
Wind_Direction
203 205 204 205 198 191 179 181 210 234 235 218 228 210 220 214 211 206 211 204 215 223 240 245 235 186 184 194 204 191 197 206 225 248 268 280 294 308
201 201 209 194 202 196 185 184 175 222 251 211 222 223 215 224 213 207 212 199 213 220 227 227 219 182 178 189 200 192 193 204 223 246 263 277 288 299
200 201 211 202 202 203 197 184 184 172 235 227 227 195 225 229 221 221 221 209 214 215 219 220 211 187 184 187 191 195 196 200 217 241 257 270 280 287
206 207 215 200 211 204 196 203 199 197 211 238 207 205 215 219 235 230 224 221 219 205 216 210 201 187 185 186 188 193 198 199 215 245 259 270 279 286
205 206 215 202 206 203 205 206 205 198 212 224 232 188 186 170 187 206 222 226 225 214 222 215 195 188 183 187 188 194 194 198 221 234 241 260 276 288
201 200 199 196 202 195 196 205 205 201 201 212 218 201 213 175 174 198 225 218 217 206 212 218 190 186 188 194 190 184 196 209 227 233 243 255 271 286
189 194 195 197 197 189 187 204 193 196 196 201 202 184 192 193 205 183 216 184 209 197 194 198 190 192 194 189 181 190 203 216 225 233 243 252 267 290
195 193 197 187 195 197 201 194 192 190 200 197 201 214 216 205 179 188 173 163 224 190 183 211 188 200 184 173 187 200 219 219 230 237 245 253 262 281
187 191 193 191 199 205 208 205 203 199 193 195 204 213 217 205 180 187 190 185 196 163 163 190 164 213 182 193 201 205 221 232 231 242 242 251 258 272
186 192 193 190 186 191 183 196 205 202 216 207 212 218 213 190 197 205 187 144 81 123 157 185 150 205 144 163 214 215 217 232 236 232 227 232 251 276
190 189 190 182 184 190 185 195 196 222 215 215 210 215 197 182 165 126 152 143 172 189 190 139 154 113 79 91 79 248 222 238 223 226 202 226 266 287
169 184 201 191 177 191 191 189 199 212 178 164 185 196 185 179 174 192 159 177 132 150 192 149 139 141 135 52 129 166 219 226 210 187 211 244 278 284
128 135 141 174 195 205 199 186 208 159 188 166 151 120 99 110 101 97 134 136 139 140 175 118 140 147 79 134 157 197 204 171 188 216 249 264 272 266
100 88 107 158 160 164 163 170 158 131 118 120 120 113 117 106 82 73 69 73 56 116 156 121 128 156 136 145 181 176 198 207 222 244 249 270 278 280
73 90 93 116 112 101 125 124 119 119 126 119 131 121 98 114 110 88 82 86 71 65 74 82 119 139 162 157 154 165 159 186 196 264 258 272 280 287
47 70 88 96 115 110 103 96 97 132 143 139 130 111 112 126 130 128 125 131 96 79 49 59 116 137 135 108 121 147 172 170 176 234 283 279 273 266
52 62 90 111 126 109 95 91 96 114 124 122 133 128 130 139 134 131 120 125 115 144 131 88 72 76 71 139 158 164 161 192 224 267 304 302 275 273
25 25 20 45 113 132 135 141 140 150 141 138 139 143 151 159 142 128 108 135 136 153 142 141 138 117 90 67 110 142 160 195 195 264 279 282 292 303
39 19 9 330 281 158 159 160 197 161 138 147 162 154 149 153 162 164 148 135 127 138 131 131 144 139 150 202 112 195 178 182 194 237 240 260 294 293
9 360 332 289 261 211 175 165 160 151 154 172 167 169 171 169 163 172 168 154 154 135 137 136 169 182 189 196 163 169 251 226 227 283 310 291 272 278
351 345 331 296 240 222 195 188 173 193 175 176 190 181 185 184 192 183 177 172 159 158 167 177 162 138 119 123 158 190 210 224 226 229 256 292 284 284
350 344 340 334 311 254 201 183 173 187 195 192 195 187 185 192 190 179 178 173 172 169 146 118 139 146 147 175 167 253 310 338 302 267 254 230 252 284
326 329 331 328 335 319 304 245 209 204 202 194 187 184 176 188 185 184 179 171 159 148 148 148 152 165 138 158 135 95 328 316 311 316 289 230 251 259